Location: *
(47.5493°S, 171.1671°W)
Time: 22:58:35
(UTC+00:00)

Daily predictions for brighter satellites

Satellite Brightness Start Highest point End
(mag) Time Altitude Azimuth Time Altitude Azimuth Time Altitude Azimuth
Cosmos 2278 Rocket 4.3 14:50:34 21° SE 14:50:34 21° SE 14:52:33 10° SE
CZ-4C R/B 4.1 15:02:43 28° NNE 15:05:53 37° ENE 15:12:27 10° SE
ATLAS 3B R/B 3.8 15:08:45 38° SSE 15:08:45 38° SSE 15:12:55 10° SE
USA 267 4.3 15:13:26 10° ESE 15:19:34 39° NE 15:20:49 36° NNE
CENTAUR R/B 4.4 15:23:02 18° S 15:23:02 18° S 15:26:14 10° SE
USA 281 3.4 15:20:15 10° NE 15:26:34 70° ESE 15:26:34 70° ESE
H-2A R/B 4.3 15:24:29 10° ENE 15:28:25 21° ESE 15:32:18 10° SSE
ISS -0.4 15:48:33 11° ENE 15:48:33 11° ENE 15:49:13 10° ENE
Cosmos 2341 Rocket 4.3 15:49:34 57° S 15:49:34 57° S 15:54:33 10° S
USA 234 3.5 15:47:45 10° ENE 15:54:13 63° SSE 15:55:35 52° SSW
Cosmos 2366 rocket 4.1 15:48:39 10° N 15:54:58 78° E 16:01:25 10° S
X-37B 4.0 16:01:00 10° ENE 16:01:00 10° ENE 16:01:03 10° ENE
Cosmos 1992 Rocket 4.3 16:01:36 58° NNE 16:01:36 58° NNE 16:05:47 10° NNE
SL-8 Rocket 3.8 16:03:28 74° NW 16:03:56 78° W 16:10:16 10° S
ATLAS 5 CENTAUR R/B 3.1 16:08:27 31° S 16:10:16 39° SE 16:15:00 10° ENE
Cosmos 2082 Rocket 2.8 16:15:17 42° NNW 16:15:17 42° NNW 16:19:13 10° N
MOS 1-B Rocket 4.4 16:05:40 10° SSE 16:13:48 73° WSW 16:19:15 18° NNW
Cosmos 1939 Rocket 4.1 16:10:16 10° NNE 16:12:41 35° NNE 16:12:41 35° NNE
Cosmos 2058 Rocket 4.1 16:16:57 37° SSE 16:16:57 37° SSE 16:19:41 10° S
Cosmos 614 Rocket 4.3 16:11:52 17° N 16:15:56 65° ENE 16:21:10 10° SSE
ATLAS CENTAUR R/B 3.8 16:21:49 35° NW 16:21:49 35° NW 16:29:47 10° NNE
CZ-4B R/B 3.4 16:20:51 10° NNE 16:24:34 52° ESE 16:25:06 47° SE
USA 229 DEB 4.2 16:17:54 10° NNW 16:25:42 70° NE 16:33:01 10° SE
USA 229 4.2 16:18:00 10° NNW 16:25:46 69° NE 16:33:06 10° SE
Cosmos 1269 Rocket 4.5 16:27:04 45° SSW 16:27:04 45° SSW 16:31:16 10° SSE
Cosmos 1461 3.3 16:27:48 60° S 16:27:48 60° S 16:31:54 10° SSE
Cosmos 1943 Rocket 2.2 16:25:37 10° NNW 16:31:09 78° ENE 16:36:46 10° SSE
Cosmos 2278 Rocket 3.0 16:32:27 34° SSW 16:32:27 34° SSW 16:36:38 10° SSE
Okean O Rocket 4.5 16:29:20 10° E 16:31:37 14° ESE 16:33:53 10° SSE
Gbstr 26 Del rocket 3.4 16:32:35 46° S 16:32:35 46° S 16:36:45 10° ESE
MINOTAUR 4 R/B 4.4 16:29:51 10° SSE 16:33:25 63° ENE 16:36:56 10° N
Meteor PRIRODA 3.7 16:31:04 10° NNE 16:34:28 74° NE 16:34:28 74° NE
Cosmos 2218 Rocket 4.1 16:34:26 10° NNW 16:40:42 52° WSW 16:47:03 10° S
NOAA 12 4.1 16:39:15 10° N 16:44:31 57° W 16:47:20 27° SSW
ATLAS CENTAUR R/B 3.2 16:46:40 15° S 16:46:40 15° S 16:47:35 10° SSE
DELTA 2 DEB (DPAF) 4.5 16:41:09 10° S 16:44:52 46° SW 16:44:52 46° SW
Cosmos 1340 Rocket 4.2 16:48:42 25° NNW 16:48:42 25° NNW 16:50:40 10° NNW
Cosmos 2369 Rocket 3.4 16:41:53 10° N 16:47:11 43° ENE 16:52:34 10° SE
FengYun 1-2 T 4.3 16:42:36 10° N 16:48:14 61° WNW 16:53:32 12° SSW
Meteor 2-3 Rocket 3.7 16:44:20 10° SSW 16:50:07 70° W 16:55:54 10° N
BREEZE-M DEB (TANK) 2.3 16:51:43 79° SSE 16:51:43 79° SSE 16:55:33 10° ENE
Cosmos 407 Rocket 4.5 16:48:29 10° N 16:53:26 47° ENE 16:58:24 10° SSE
NOSS 3-1 (A) 4.1 16:45:12 10° NW 16:54:09 76° SW 17:01:50 10° SE
CZ-4C R/B 2.8 16:48:01 18° NW 16:54:23 68° SW 17:01:14 10° SE
Cosmos 1727 Rocket 4.0 16:49:20 10° SSW 16:55:25 55° W 17:01:27 10° NNW
ATLAS 3B R/B 3.8 16:56:00 23° SW 16:57:57 26° SSW 17:03:38 10° SE
CZ-4C R/B 3.0 16:58:18 10° S 17:01:56 57° WSW 17:05:24 10° NNW
USA 267 3.2 16:56:16 10° SE 17:02:54 78° SSW 17:08:12 17° WNW
ADEOS 3.9 16:58:35 10° N 17:03:34 43° W 17:06:49 20° SW
NOSS 3-1 (C) 4.3 16:58:20 23° WNW 17:03:42 51° SW 17:10:59 10° SE
SL-08 R/B 3.4 17:00:14 10° S 17:04:59 55° WSW 17:09:36 10° NNW
SL-4 R/B 1.9 17:05:19 45° SW 17:05:50 49° SSW 17:09:23 10° ESE
Cosmos 1821 Rocket 3.9 16:59:39 10° NNW 17:05:57 66° WSW 17:12:14 10° S
Cosmos 1812 Rocket 3.7 17:01:40 10° N 17:06:11 80° E 17:10:45 10° SSE
H-2A R/B 2.0 17:02:02 10° N 17:07:22 67° WNW 17:12:39 10° SSW
Cosmos 2151 2.9 17:04:29 15° SSW 17:08:02 61° W 17:12:14 10° N
ARGOS 3.3 17:04:41 10° NNE 17:10:08 77° ESE 17:15:40 10° SSW
Cosmos 1140 Rocket 3.8 17:05:59 10° NNW 17:11:10 71° ENE 17:16:23 10° SSE
USA 281 4.1 17:06:28 10° NNW 17:11:50 26° WNW 17:13:26 24° W
CENTAUR R/B 3.7 17:10:13 12° SSW 17:14:55 28° SSE 17:19:29 10° E
USA 276 2.5 17:18:54 37° WNW 17:19:34 45° NNW 17:22:27 10° NE
ISS -3.4 17:21:32 17° NW 17:24:00 64° NNE 17:27:25 10° ESE
CZ-2D R/B 3.6 17:23:24 10° N 17:27:03 41° W 17:30:09 14° SSW
Cosmos 1076 Rocket 4.3 17:25:55 20° SW 17:27:54 29° W 17:31:36 10° NNW
CZ-4B R/B 3.8 17:23:16 10° NNE 17:28:48 60° ESE 17:34:19 10° S
SMAP 3.6 17:24:55 10° NNW 17:29:16 37° W 17:33:40 10° SSW
CZ-4 R/B 3.5 17:25:59 10° ENE 17:29:24 26° ESE 17:32:47 10° S
Cosmos 1023 Rocket 4.4 17:25:20 10° NNW 17:30:31 78° WSW 17:35:44 10° SSE
X-37B 2.2 17:32:13 17° NW 17:33:21 21° NNW 17:35:38 10° NNE
CZ-2C R/B 2.7 17:29:22 10° S 17:34:42 58° WSW 17:39:51 10° NNW
Cosmos-2242 2.9 17:30:48 10° NNW 17:35:05 67° WSW 17:39:25 10° S
USA 234 3.5 17:30:55 10° NNE 17:37:19 54° NW 17:42:56 14° WSW
OBJECT-B 3.7 17:36:14 10° E 17:37:31 12° ESE 17:38:48 10° SE
Cosmos 2251 Rocket 3.8 17:32:43 10° NW 17:37:54 46° WSW 17:43:10 10° SSE
Kosmos-1675 4.1 17:30:30 10° SW 17:38:01 68° WNW 17:41:43 10° NNE
Cosmos 1766 Rocket 3.9 17:38:38 10° S 17:43:06 71° E 17:47:33 10° NNE
PSLV R/B 3.8 17:43:33 10° N 17:47:17 57° W 17:51:10 10° SSW
Cosmos 1934 Rocket 4.0 17:45:55 10° NNW 17:51:54 57° WSW 17:58:00 10° S
Cosmos 2123 Rocket 4.2 17:46:13 10° SSW 17:52:20 51° W 17:58:20 10° NNW
Cosmos 1190 Rocket 4.0 17:47:12 10° NNW 17:52:33 82° WSW 17:57:57 10° SSE
Spot 1 4.5 17:48:12 10° S 17:52:42 50° WSW 17:57:22 10° NW
Cosmos 1869 4.5 17:50:47 10° WNW 17:53:46 21° WSW 17:56:47 10° SSW
Meteor 2-11 Rocket 4.4 17:48:11 10° NNW 17:54:21 78° W 18:00:36 10° S
ATLAS 5 CENTAUR R/B 2.3 17:49:56 11° SW 17:55:03 46° WNW 17:59:30 10° NNE
Cosmos 2263 4.2 17:54:51 10° NNW 18:00:40 77° WSW 18:06:33 10° SSE
Cosmos 2297 4.4 17:56:25 10° WNW 18:01:31 33° SW 18:06:39 10° SSE
COSMO-SKYMED 1 2.6 17:57:31 10° S 18:01:54 62° WSW 18:06:14 10° NNW
Okean O Rocket 1.7 18:02:47 10° NNE 18:07:17 86° WNW 18:11:52 10° SSW
Cosmos 676 Rocket 4.1 18:05:06 10° NNW 18:10:26 88° ENE 18:15:48 10° SSE
Kosmos-1783 2.6 18:10:12 10° SW 18:13:35 69° NW 18:15:18 10° NNE
Cosmos 1862 4.3 18:11:50 10° SSW 18:15:20 28° W 18:18:49 10° NNW
Cosmos 1943 Rocket 3.3 18:11:10 10° W 18:15:32 23° SW 18:19:54 10° S
Cosmos 468 Rocket 4.0 18:10:39 10° SSW 18:15:55 88° WNW 18:21:04 10° NNE
USA 229 DEB 4.3 18:09:58 10° WNW 18:17:11 41° SW 18:23:57 10° SE
USA 229 4.3 18:10:02 10° WNW 18:17:15 41° SW 18:24:01 10° SE
Cosmos 2278 Rocket 4.1 18:16:11 10° SW 18:17:17 10° SSW 18:18:21 10° SSW
Resurs 01 Rocket 4.3 18:16:11 10° E 18:18:17 13° ESE 18:20:22 10° SSE
YAOGAN 1 2.6 18:14:37 10° N 18:18:59 79° WNW 18:23:25 10° SSW
Gbstr 26 Del rocket 3.1 18:15:25 10° WSW 18:19:34 86° SSE 18:24:33 10° ENE
deb Chang Zheng 4 4.2 18:16:59 10° NNE 18:21:11 58° ESE 18:25:26 10° S
IRIDIUM 114 4.4 18:16:37 10° S 18:21:57 87° W 18:27:14 10° N
Cosmos 540 Rocket 3.8 18:17:14 10° SSW 18:22:29 74° ESE 18:27:38 10° NNE
